Hourly Weather Ruvo di Puglia

Today, 20 April, Tuesday

Time Temperature Precipitation Wind Pressure Humidity
00:00 +5°C° 0 mm 3 mps 740 mmHg 88%
01:00 +5°C° 0 mm 3 mps 740 mmHg 87%
02:00 +4°C° 0 mm 3 mps 740 mmHg 87%
03:00 +4°C° 0 mm 3 mps 740 mmHg 86%
04:00 +4°C° 0 mm 3 mps 740 mmHg 86%
05:00 +6°C° 0 mm 2 mps 741 mmHg 82%
06:00 +7°C° 0 mm 2 mps 741 mmHg 78%
07:00 +9°C° 0 mm 2 mps 741 mmHg 74%
08:00 +10°C° 0 mm 2 mps 741 mmHg 69%
09:00 +11°C° 0 mm 3 mps 741 mmHg 63%
10:00 +13°C° 0 mm 3 mps 742 mmHg 58%
11:00 +13°C° 0.3 mm 3 mps 741 mmHg 57%
12:00 +14°C° 0.3 mm 3 mps 741 mmHg 57%
13:00 +15°C° 0.3 mm 2 mps 741 mmHg 56%
14:00 +15°C° 0.6 mm 2 mps 741 mmHg 60%
15:00 +14°C° 0.6 mm 2 mps 741 mmHg 64%
16:00 +14°C° 0.6 mm 2 mps 741 mmHg 67%
17:00 +13°C° 0.4 mm 2 mps 741 mmHg 73%
18:00 +10°C° 0.4 mm 2 mps 742 mmHg 79%
19:00 +9°C° 0.4 mm 2 mps 742 mmHg 84%
20:00 +8°C° 0 mm 2 mps 742 mmHg 85%
21:00 +9°C° 0 mm 1 mps 742 mmHg 85%
22:00 +8°C° 0 mm 1 mps 743 mmHg 85%
23:00 +8°C° 0 mm 1 mps 743 mmHg 85%

Tomorrow, 21 April, Wednesday

Time Temperature Precipitation Wind Pressure Humidity
00:00 +8°C° 0 mm 1 mps 743 mmHg 85%
01:00 +6°C° 0 mm 2 mps 743 mmHg 85%
02:00 +6°C° 0 mm 2 mps 743 mmHg 84%
03:00 +7°C° 0 mm 1 mps 743 mmHg 84%
04:00 +7°C° 0 mm 1 mps 743 mmHg 83%
05:00 +8°C° 0 mm 1 mps 743 mmHg 80%
06:00 +9°C° 0 mm 1 mps 743 mmHg 77%
07:00 +11°C° 0 mm 1 mps 744 mmHg 73%
08:00 +12°C° 0 mm 1 mps 744 mmHg 66%
09:00 +14°C° 0 mm 2 mps 744 mmHg 59%
10:00 +16°C° 0 mm 2 mps 744 mmHg 52%
11:00 +17°C° 0 mm 3 mps 744 mmHg 50%
12:00 +17°C° 0 mm 3 mps 744 mmHg 47%
13:00 +18°C° 0 mm 4 mps 744 mmHg 45%
14:00 +18°C° 0 mm 4 mps 743 mmHg 47%
15:00 +16°C° 0 mm 5 mps 743 mmHg 48%
16:00 +16°C° 0 mm 5 mps 743 mmHg 50%
17:00 +14°C° 0 mm 5 mps 743 mmHg 57%
18:00 +13°C° 0 mm 5 mps 743 mmHg 63%
19:00 +11°C° 0 mm 4 mps 743 mmHg 70%
20:00 +10°C° 0 mm 4 mps 743 mmHg 74%
21:00 +10°C° 0 mm 4 mps 743 mmHg 79%
22:00 +8°C° 0 mm 4 mps 744 mmHg 83%
23:00 +9°C° 0 mm 3 mps 743 mmHg 83%

Day after tomorrow, 22 April, Thursday

Time Temperature Precipitation Wind Pressure Humidity
00:00 +9°C° 0 mm 3 mps 743 mmHg 83%
01:00 +8°C° 0 mm 3 mps 743 mmHg 83%
02:00 +8°C° 0 mm 3 mps 743 mmHg 84%
03:00 +8°C° 0 mm 2 mps 743 mmHg 85%
04:00 +8°C° 0 mm 2 mps 743 mmHg 86%
05:00 +9°C° 0 mm 3 mps 743 mmHg 84%
06:00 +10°C° 0 mm 3 mps 743 mmHg 81%
07:00 +11°C° 0 mm 3 mps 743 mmHg 79%
08:00 +12°C° 0 mm 3 mps 743 mmHg 72%
09:00 +14°C° 0 mm 3 mps 743 mmHg 65%
10:00 +17°C° 0 mm 3 mps 743 mmHg 58%
11:00 +18°C° 0 mm 3 mps 743 mmHg 57%
12:00 +18°C° 0 mm 4 mps 743 mmHg 56%
13:00 +19°C° 0 mm 4 mps 742 mmHg 54%
14:00 +18°C° 0.5 mm 4 mps 742 mmHg 63%
15:00 +17°C° 0.5 mm 4 mps 742 mmHg 71%
16:00 +14°C° 0.5 mm 4 mps 742 mmHg 80%
17:00 +13°C° 0.5 mm 3 mps 742 mmHg 85%
18:00 +13°C° 0.5 mm 3 mps 742 mmHg 89%
19:00 +13°C° 0.5 mm 2 mps 742 mmHg 94%
20:00 +13°C° 0.9 mm 2 mps 742 mmHg 94%
21:00 +13°C° 0.9 mm 2 mps 742 mmHg 95%
22:00 +13°C° 0.9 mm 2 mps 742 mmHg 95%
23:00 +12°C° 0.7 mm 2 mps 741 mmHg 95%

23 April, Friday

Time Temperature Precipitation Wind Pressure Humidity
00:00 +12°C° 0.7 mm 2 mps 741 mmHg 96%
01:00 +12°C° 0.7 mm 1 mps 741 mmHg 96%
02:00 +12°C° 1 mm 1 mps 741 mmHg 96%
03:00 +12°C° 1 mm 1 mps 741 mmHg 96%
04:00 +12°C° 1 mm 1 mps 741 mmHg 96%
05:00 +12°C° 0.4 mm 1 mps 741 mmHg 96%
06:00 +12°C° 0.4 mm 1 mps 741 mmHg 96%
07:00 +12°C° 0.4 mm 1 mps 741 mmHg 96%
08:00 +12°C° 0.4 mm 1 mps 741 mmHg 95%
09:00 +13°C° 0.4 mm 1 mps 741 mmHg 94%
10:00 +13°C° 0.4 mm 2 mps 741 mmHg 93%
11:00 +13°C° 1 mm 1 mps 741 mmHg 94%
12:00 +13°C° 1 mm 1 mps 741 mmHg 94%
13:00 +13°C° 1 mm 1 mps 741 mmHg 94%
14:00 +12°C° 1.3 mm 1 mps 741 mmHg 94%
15:00 +12°C° 1.3 mm 1 mps 741 mmHg 95%
16:00 +12°C° 1.3 mm 1 mps 741 mmHg 96%
17:00 +12°C° 1.7 mm 1 mps 741 mmHg 96%
18:00 +12°C° 1.7 mm 1 mps 742 mmHg 96%
19:00 +12°C° 1.7 mm 1 mps 742 mmHg 97%
20:00 +12°C° 1 mm 1 mps 742 mmHg 97%
21:00 +12°C° 1 mm 1 mps 742 mmHg 97%
22:00 +12°C° 1 mm 1 mps 743 mmHg 97%
23:00 +11°C° 0.3 mm 1 mps 743 mmHg 97%

24 April, Saturday

Time Temperature Precipitation Wind Pressure Humidity
00:00 +10°C° 0.3 mm 2 mps 743 mmHg 97%
01:00 +10°C° 0.3 mm 2 mps 743 mmHg 97%
02:00 +10°C° 0.3 mm 2 mps 743 mmHg 97%
03:00 +10°C° 0.3 mm 2 mps 743 mmHg 97%
04:00 +10°C° 0.3 mm 3 mps 743 mmHg 97%
05:00 +11°C° 0.1 mm 4 mps 743 mmHg 94%
06:00 +10°C° 0.1 mm 5 mps 743 mmHg 92%
07:00 +10°C° 0.1 mm 6 mps 743 mmHg 89%
08:00 +11°C° 0 mm 6 mps 743 mmHg 82%
09:00 +13°C° 0 mm 5 mps 744 mmHg 75%
10:00 +14°C° 0 mm 5 mps 744 mmHg 67%
11:00 +15°C° 0 mm 6 mps 744 mmHg 64%
12:00 +15°C° 0 mm 6 mps 744 mmHg 61%
13:00 +16°C° 0 mm 6 mps 744 mmHg 58%
14:00 +15°C° 0 mm 6 mps 744 mmHg 57%
15:00 +15°C° 0 mm 6 mps 744 mmHg 56%
16:00 +15°C° 0 mm 5 mps 744 mmHg 55%
17:00 +13°C° 0 mm 5 mps 744 mmHg 62%
18:00 +11°C° 0 mm 4 mps 744 mmHg 68%
19:00 +10°C° 0 mm 3 mps 744 mmHg 74%
20:00 +9°C° 0 mm 3 mps 744 mmHg 77%
21:00 +9°C° 0 mm 3 mps 745 mmHg 79%
22:00 +8°C° 0 mm 3 mps 745 mmHg 81%
23:00 +8°C° 0 mm 3 mps 745 mmHg 79%

25 April, Sunday

Time Temperature Precipitation Wind Pressure Humidity
00:00 +8°C° 0 mm 3 mps 745 mmHg 78%
01:00 +7°C° 0 mm 3 mps 745 mmHg 76%
02:00 +7°C° 0 mm 3 mps 745 mmHg 74%
03:00 +7°C° 0 mm 3 mps 745 mmHg 72%
04:00 +7°C° 0 mm 3 mps 745 mmHg 69%
05:00 +9°C° 0 mm 3 mps 745 mmHg 65%
06:00 +10°C° 0 mm 2 mps 745 mmHg 61%
07:00 +13°C° 0 mm 1 mps 745 mmHg 56%
08:00 +14°C° 0 mm 2 mps 745 mmHg 51%
09:00 +16°C° 0 mm 2 mps 745 mmHg 46%
10:00 +18°C° 0 mm 2 mps 745 mmHg 41%
11:00 +19°C° 0 mm 2 mps 745 mmHg 40%
12:00 +19°C° 0 mm 2 mps 745 mmHg 39%
13:00 +20°C° 0 mm 2 mps 745 mmHg 38%
14:00 +20°C° 0 mm 2 mps 745 mmHg 40%
15:00 +20°C° 0 mm 2 mps 745 mmHg 41%
16:00 +20°C° 0 mm 2 mps 744 mmHg 43%
17:00 +17°C° 0 mm 2 mps 744 mmHg 49%
18:00 +15°C° 0 mm 1 mps 744 mmHg 55%
19:00 +13°C° 0 mm 1 mps 744 mmHg 61%
20:00 +13°C° 0 mm 1 mps 745 mmHg 61%
21:00 +13°C° 0 mm 1 mps 745 mmHg 61%
22:00 +12°C° 0 mm 1 mps 745 mmHg 61%
23:00 +12°C° 0 mm 1 mps 745 mmHg 62%
Show more